This demonstration page uses our WeatherBlox Daily Observations layout. Learn more.

Left ArrowRight Arrow

36.17497, -115.13722

Hourly Observations for July 12, 2021

Temp ( °F °C ) Dew Point ( °F °C ) Humidity (%) Winds ( mph kmh ) Pressure ( in mb ) Visibility ( mi km ) Precip ( " mm )
12:53 am 00:53 Mostly Clear 98 36.7 54 12.2 23 23 W 6 9 29.81 1010 10 16 0.00 0.00
1:53 am 01:53 Clear 97 36.1 56 13.3 25 25 N 6 9 29.77 1008 10 16 0.00 0.00
2:53 am 02:53 Clear 96 35.6 56 13.3 26 26 NW 9 15 29.73 1007 10 16 0.00 0.00
3:53 am 03:53 Clear 96 35.6 53 11.7 23 23 NNW 8 13 29.71 1006 10 16 0.00 0.00
4:53 am 04:53 Clear 95 35 54 12.2 25 25 SW 7 11 29.70 1006 10 16 0.00 0.00
5:53 am 05:53 Sunny 95 35 54 12.2 25 25 VRB 5 7 29.75 1007 10 16 0.00 0.00
6:53 am 06:53 Sunny 95 35 55 12.8 26 26 Calm 29.77 1008 10 16 0.00 0.00
7:53 am 07:53 Sunny 99 37.2 54 12.2 22 22 NNE 5 7 29.79 1009 10 16 0.00 0.00
8:53 am 08:53 Sunny 102 38.9 54 12.2 20 20 VRB 3 6 29.79 1009 10 16 0.00 0.00
9:53 am 09:53 Sunny 102 38.9 55 12.8 21 21 ESE 12 19 29.79 1009 10 16 0.00 0.00
10:53 am 10:53 Sunny 105 40.6 53 11.7 18 18 ESE 5 7 29.79 1009 10 16 0.00 0.00
11:53 am 11:53 Sunny 108 42.2 50 10 14 14 VRB 3 6 29.78 1008 10 16 0.00 0.00
12:53 pm 12:53 Sunny 111 43.9 55 12.8 16 16 ESE 12 19 29.75 1008 10 16 0.00 0.00
1:53 pm 13:53 Sunny 112 44.4 55 12.8 15 15 SE 15 24 29.73 1007 10 16 0.00 0.00
2:53 pm 14:53 Sunny 112 44.4 55 12.8 15 15 ESE 16 26 29.70 1006 10 16 0.00 0.00
3:53 pm 15:53 Sunny 113 45 54 12.2 14 14 ESE 12 19 29.67 1005 10 16 0.00 0.00
4:53 pm 16:53 Sunny 111 43.9 54 12.2 15 15 ESE 13 20 29.65 1004 10 16 0.00 0.00
5:53 pm 17:53 Sunny 112 44.4 53 11.7 14 14 E 12 19 29.64 1004 10 16 0.00 0.00
6:53 pm 18:53 Sunny 109 42.8 55 12.8 17 17 ESE 14 22 29.64 1004 10 16 0.00 0.00
7:53 pm 19:53 Sunny 108 42.2 57 13.9 19 19 ESE 7 11 29.65 1004 10 16 0.00 0.00
8:53 pm 20:53 Clear 105 40.6 59 15 22 22 E 8 13 29.66 1004 10 16 0.00 0.00
9:53 pm 21:53 Clear 105 40.6 58 14.4 21 21 NNE 7 11 29.70 1006 10 16 0.00 0.00
10:30 pm 22:30 Clear with Thunderstorms 103 39.4 59 15 24 24 ENE 14 22 29.58 1002 10 16 0.00 0.00
10:53 pm 22:53 Partly Cloudy with Thunderstorms 97 36.1 58 14.4 27 27 NE 26 43 29.78 1009 10 16 0.00 0.00
11:02 pm 23:02 Mostly Clear 92 33.3 60 15.6 34 34 NE 30 48 29.68 1005 10 16 0.00 0.00
11:13 pm 23:13 Mostly Clear with Nearby Thunderstorms 88 31.1 64 17.8 45 45 ENE 22 35 29.71 1006 10 16 0.00 0.00
11:38 pm 23:38 Mostly Clear with Thunderstorms 84 28.9 65 18.3 53 53 E 12 19 29.75 1007 10 16 0.00 0.00
11:53 pm 23:53 Mostly Clear with Thunderstorms 85 29.4 64 17.8 50 50 ENE 8 13 29.84 1011 10 16 0.00 0.00

Powered by AerisWeather